Regional Weather Roundup
Issued by NWS

Home | Current Version | Previous Version | Graphics & Text | Print | Product List | Glossary On
Versions: 1 2 3 4 5 6 7 8 9 10 11 12 13 14 15 16 17 18 19 20 21 22 23 24 25 26 27 28 29 30 31 32 33 34 35 36 37 38 39 40 41 42 43 44 45 46 47 48 49 50
000
ASUS43 KOAX 160002
RWRNE

WEATHER ROUNDUP FOR NEBRASKA
NATIONAL WEATHER SERVICE OMAHA NE
600 PM CST FRI DEC 15 2017

NOTES: SATELLITE DATA IS BEING USED TO AUGMENT CLOUD COVER ABOVE
       12000 FEET.
       "FAIR" INDICATES FEW OR NO CLOUDS BELOW 12,000 FEET WITH NO
       SIGNIFICANT WEATHER AND/OR OBSTRUCTIONS TO VISIBILITY.


NEZ001>004-019>022-054>056-160100-
NEBRASKA PANHANDLE

CITY           SKY/WX    TMP DP  RH WIND       PRES   REMARKS
SCOTTSBLUFF    CLOUDY    52  11  19 W13G24    29.79F
6HR MIN TEMP:  51; 6HR MAX TEMP:  59;

ALLIANCE       CLOUDY    40  16  37 SW10      29.77S WCI  33
6HR MIN TEMP:  40; 6HR MAX TEMP:  56;

CHADRON        CLOUDY    42  17  36 W3        29.74R
6HR MIN TEMP:  42; 6HR MAX TEMP:  59;

GORDON         FAIR      42  18  37 W6        29.72S
6HR MIN TEMP:  42; 6HR MAX TEMP:  56;

KIMBALL        CLOUDY    47  12  24 W14       29.84F
SIDNEY         CLOUDY    42  12  29 W12       29.83F
6HR MIN TEMP:  41; 6HR MAX TEMP:  61;

$$

NEZ057>060-069>072-079>082-160100-
SOUTHWEST NEBRASKA

CITY           SKY/WX    TMP DP  RH WIND       PRES   REMARKS
NORTH PLATTE   CLOUDY    42  17  36 CALM      29.78F
6HR MIN TEMP:  41; 6HR MAX TEMP:  58;

IMPERIAL       CLOUDY    45  11  25 SW7       29.81F
6HR MIN TEMP:  45; 6HR MAX TEMP:  60;

LEXINGTON      CLOUDY    46  16  30 SW6       29.80F
MCCOOK         CLOUDY    51  12  21 SW8       29.81F
6HR MIN TEMP:  43; 6HR MAX TEMP:  59;

OGALLALA       CLOUDY    40  15  35 NW3       29.80S
$$

NEZ005>010-023>029-035>040-094-160100-
NORTH CENTRAL NEBRASKA

CITY           SKY/WX    TMP DP  RH WIND       PRES   REMARKS
VALENTINE      CLOUDY    42  27  55 W6        29.70F
6HR MIN TEMP:  39; 6HR MAX TEMP:  54;

AINSWORTH      CLOUDY    39  29  68 SW6       29.70F WCI  35
BROKEN BOW     CLOUDY    42  25  50 CALM      29.76F
6HR MIN TEMP:  38; 6HR MAX TEMP:  52;

O`NEILL        CLOUDY    39  29  67 SW7       29.72S WCI  34
ORD            CLOUDY    42  26  53 SW9       29.74F
6HR MIN TEMP:  39; 6HR MAX TEMP:  49;

THEDFORD       CLOUDY    46  20  35 SW7       29.74F
$$

NEZ041-046>049-061>064-073>077-083>087-160100-
SOUTH CENTRAL NEBRASKA

CITY           SKY/WX    TMP DP  RH WIND       PRES   REMARKS
GRAND ISLAND   CLOUDY    44  24  45 SW10      29.80F
6HR MIN TEMP:  37; 6HR MAX TEMP:  50;

AURORA         CLEAR     39  26  59 SW9       29.81S WCI  32
HASTINGS       CLOUDY    42  21  43 SW3       29.82S
6HR MIN TEMP:  39; 6HR MAX TEMP:  51;

HEBRON         CLEAR     44  27  50 S12       29.84F
HOLDREGE       CLOUDY    46  18  33 SW8       29.82S
KEARNEY        CLOUDY    46  19  34 SW7       29.81S
$$

NEZ011>018-030>034-042>045-160100-
NORTHEAST NEBRASKA

CITY           SKY/WX    TMP DP  RH WIND       PRES   REMARKS
NORFOLK        PTCLDY    39  30  70 S9        29.73F WCI  33
6HR MIN TEMP:  37; 6HR MAX TEMP:  45;

ALBION         CLOUDY    38  30  72 SE6       29.77F WCI  34
BLAIR          CLOUDY    43  27  54 S14       29.80S
COLUMBUS       PTCLDY    43  29  57 SW7       29.80S
FREMONT        CLEAR     42  27  55 S5        29.81S
TEKAMAH        PTCLDY    41  25  53 S10       29.78F
6HR MIN TEMP:  41; 6HR MAX TEMP:  49;

WAYNE          PTCLDY    39  29  66 SW10      29.74F WCI  32
$$

NEZ050>053-065>068-078-088>093-160100-
SOUTHEAST NEBRASKA

CITY           SKY/WX    TMP DP  RH WIND       PRES   REMARKS
LINCOLN        CLEAR     45  25  45 SW13      29.83F
6HR MIN TEMP:  43; 6HR MAX TEMP:  49;

OMAHA EPPLEY   CLOUDY    46  24  42 S9        29.82S
6HR MIN TEMP:  42; 6HR MAX TEMP:  49;

BEATRICE       CLEAR     44  25  47 S10       29.85F
FALLS CITY     CLEAR     43  23  45 S15       29.88F
6HR MIN TEMP:  42; 6HR MAX TEMP:  48;

NEBRASKA CITY  CLEAR     42  26  51 SW13      29.84F
$$

NEZ044-045-051>053-067-160100-
OMAHA AREA

CITY           SKY/WX    TMP DP  RH WIND       PRES   REMARKS
OMAHA EPPLEY   CLOUDY    46  24  42 S9        29.82S
6HR MIN TEMP:  42; 6HR MAX TEMP:  49;

BLAIR          CLOUDY    43  27  54 S14       29.80S
FREMONT        CLEAR     42  27  55 S5        29.81S
MILLARD        CLOUDY    46  27  46 S5        29.82S
OFFUTT AFB     CLOUDY    42  24  48 S6        29.82S
WAHOO          FAIR      43  25  48 SW7       29.81S
$$




USA.gov is the U.S. government's official web portal to all federal, state and local government web resources and services.